This is the latest recevied weather packets stored in our database for station/object KC3VCX. If no packets are shown the sender has not sent any weather packets the latest 10 day(s).
| Time | Temp. | Humidity | Pressure | Rain* | Wind** | Luminosity | Snow |
|---|---|---|---|---|---|---|---|
| 1777905854 | 16.67° C | 51% | 1012.9 hPa | 0 mm | - | 632 W/m² | - |
| 1777905550 | 17.22° C | 50% | 1012.9 hPa | 0 mm | - | 621 W/m² | - |
| 1777905248 | 16.67° C | 50% | 1012.8 hPa | 0 mm | - | 608 W/m² | - |
| 1777904945 | 16.67° C | 50% | 1012.7 hPa | 0 mm | - | 595 W/m² | - |
| 1777904642 | 16.11° C | 53% | 1013 hPa | 0 mm | - | 581 W/m² | - |
| 1777904339 | 16.11° C | 49% | 1013 hPa | 0 mm | - | 570 W/m² | - |
| 1777904036 | 16.11° C | 49% | 1012.8 hPa | 0 mm | - | 558 W/m² | - |
| 1777903732 | 15.56° C | 51% | 1013.2 hPa | 0 mm | - | 540 W/m² | - |
| 1777903428 | 15.56° C | 53% | 1013.2 hPa | 0 mm | - | 530 W/m² | - |
| 1777903125 | 15° C | 53% | 1013.1 hPa | 0 mm | - | 519 W/m² | - |
| 1777902822 | 15.56° C | 51% | 1013.3 hPa | 0 mm | - | 503 W/m² | - |
| 1777902519 | 15° C | 52% | 1013.4 hPa | 0 mm | - | 487 W/m² | - |
| 1777902216 | 15° C | 52% | 1013.2 hPa | 0 mm | - | 475 W/m² | - |
| 1777901914 | 15° C | 52% | 1013.3 hPa | 0 mm | - | 457 W/m² | - |
| 1777901612 | 14.44° C | 53% | 1013.6 hPa | 0 mm | - | 443 W/m² | - |
| 1777901309 | 14.44° C | 55% | 1013.4 hPa | 0 mm | - | 427 W/m² | - |
| 1777901006 | 14.44° C | 52% | 1013.3 hPa | 0 mm | - | 411 W/m² | - |
| 1777900704 | 14.44° C | 54% | 1013.2 hPa | 0 mm | - | 394 W/m² | - |
| 1777900400 | 13.89° C | 55% | 1013.3 hPa | 0 mm | - | 377 W/m² | - |
| 1777900097 | 13.89° C | 54% | 1013.5 hPa | 0 mm | - | 363 W/m² | - |
| 1777899793 | 13.33° C | 54% | 1013.3 hPa | 0 mm | - | 78 W/m² | - |
| 1777899490 | 13.33° C | 55% | 1013.4 hPa | 0 mm | - | 333 W/m² | - |
| 1777899189 | 12.78° C | 54% | 1013.5 hPa | 0 mm | - | 316 W/m² | - |
| 1777898886 | 12.78° C | 55% | 1013.3 hPa | 0 mm | - | 74 W/m² | - |
| 1777898583 | 12.78° C | 57% | 1013.4 hPa | 0 mm | - | 285 W/m² | - |
* Rain latest hour (hover to see other rain measurements)
** Current wind speed in m/s (hover to see current wind gust speed)